[[{"header":{"parameterUnit":"m.s-1","parameterCategory":1,"la1":30.2991,"la2":30.254,"lo1":-89.0895,"lo2":-89.0444,"dy":0.0017,"dx":0.0017,"nx":28,"ny":28,"refTime":"2024-10-17T09:00:00:Z","depth":0,"parameterNumber":2,"parameterNumberName":"U-component_of_WINDS"},"data":[0,0,0,0,0,0,0,0,0,0,0,0,0,0,0,0,0,0,0,0,0,0,0,0,0,0,0,0,0,0,0,0,0,0,0,0,0,0,0,0,0,0,0,0,0,0,0,0,0,0,0,0,0,0,0,0,0,0,-4.859,-4.859,0,-4.8625,-4.8625,-4.8625,-4.8429,-4.8423,-4.8418,-4.8412,-4.8449,-4.8455,-4.8462,0,0,0,0,0,0,0,0,0,0,0,0,0,-4.8352,-4.8357,-4.8589,-4.859,-4.859,-4.8625,-4.8625,-4.8626,-4.843,-4.8423,-4.8416,-4.841,-4.8447,-4.8455,-4.8462,0,0,0,0,0,0,0,0,0,0,0,0,0,-4.8428,-4.8359,-4.8589,-4.8497,-4.8489,-4.8625,-4.8625,-4.8626,-4.8431,-4.8423,-4.8414,-4.8406,-4.8445,-4.8454,-4.8463,-4.869,0,0,-4.8492,-4.8496,0,0,0,0,0,0,0,0,-4.8424,-4.8437,-4.851,-4.8503,-4.8495,-4.8514,-4.8554,-4.8647,-4.8433,-4.8453,-4.8412,-4.8402,-4.8478,-4.8484,-4.8509,-4.8692,-4.8693,-4.8493,-4.8498,-4.8502,-4.8505,0,0,0,0,0,0,0,-4.8419,-4.8434,-4.8603,-4.8511,-4.8502,-4.8453,-4.8455,-4.8571,-4.8512,-4.8451,-4.8437,-4.8443,-4.8472,-4.85,-4.8508,-4.8694,-4.8492,-4.8501,-4.8506,-4.851,-4.9062,-4.9071,0,0,0,0,0,0,-4.8426,-4.8431,-4.8602,-4.8604,-4.8438,-4.8464,-4.8466,-4.8516,-4.8511,-4.8502,-4.8451,-4.8434,-4.8489,-4.8498,-4.8509,-4.8774,-4.8502,-4.8511,-4.8516,-4.9053,-4.9064,-4.9074,0,0,0,0,0,0,-4.8422,-4.8443,-4.8601,-4.8514,-4.853,-4.8477,-4.8535,-4.8521,-4.855,-4.851,-4.8499,-4.8491,-4.8482,-4.8496,-4.8646,-4.8772,-4.8515,-4.8524,-4.9043,-4.9057,-4.9069,-4.9306,0,0,0,0,0,0,-4.8416,-4.8443,-4.8529,-4.8517,-4.8536,-4.8739,-4.8543,-4.8528,-4.8566,-4.8545,-4.8545,-4.8537,-4.8477,-4.8633,-4.8655,-4.878,-4.8531,-4.9031,-4.9049,-4.9065,-4.9287,-4.9326,-4.9359,0,0,0,0,0,-4.8408,-4.8595,-4.8534,-4.8556,-4.8642,-4.8746,-4.8757,-4.8683,-4.8577,-4.8663,-4.8637,-4.8537,-4.8754,-4.865,-4.8673,-4.8803,-4.9023,-4.9044,-4.9064,-4.927,-4.9318,-4.9359,0,0,0,0,0,0,-4.8623,-4.8591,-4.8524,-4.8713,-4.8734,-4.8713,-4.8819,-4.8737,-4.8788,-4.8766,-4.8673,-4.8675,-4.8841,-4.8836,-4.8721,-4.9022,-4.887,-4.8896,-4.9019,-4.9064,-4.91,-4.9099,-4.8539,0,0,0,0,0,-4.8693,-4.878,-4.8747,-4.8916,-4.893,-4.8874,-4.8916,-4.8857,-4.8875,-4.8883,-4.8868,-4.889,-4.8962,-4.9012,-4.9077,-4.9284,-4.9281,-4.9384,-4.9421,-4.9451,-4.9475,-4.9584,-4.9629,-4.9141,-4.9141,-4.9141,0,0,-4.8837,-4.883,-4.8891,-4.8959,-4.8969,-4.9061,-4.8882,-4.8987,-4.9055,-4.8899,-4.904,-4.903,-4.9047,-4.9227,-4.9305,-4.9228,-4.9609,-4.9477,-4.9501,-4.9509,-4.9609,-4.9656,-4.9697,-4.9155,-4.9152,-4.915,0,0,-4.9148,-4.9151,-4.9293,-4.9305,-4.9321,-4.9281,-4.9315,-4.9307,-4.9294,-4.9434,-4.9318,-4.9396,-4.9524,-4.9541,-4.9567,-4.9881,-4.9791,-4.9904,-5.0096,-5.0203,-5.0241,-5.0275,-5.0388,-5.043,-4.9928,-4.9929,-4.9929,0,-4.9326,-4.946,-4.9376,-4.9489,-4.9522,-4.9384,-4.9526,-4.9542,-4.9579,-4.9605,-4.9518,-4.9674,-4.9676,-4.9857,-4.9934,-4.9959,-4.9995,-4.9905,-5.0242,-5.0275,-5.0306,-5.0412,-5.0455,-4.9943,-4.9941,-4.994,-4.9938,0,-4.9678,-4.9773,-4.9885,-4.9924,-4.9969,-5.0096,-5.0031,-5.0087,-5.0023,-4.9993,-5.0137,-5.0133,-5.0195,-5.0233,-5.0173,-5.0406,-5.0358,-5.0258,-5.0104,-5.0367,-5.0466,-5.0506,-4.9963,-4.9958,-4.9954,-4.995,0,0,-5.0129,-5.0117,-5.016,-5.0175,-5.0181,-5.0253,-5.0373,-5.0432,-5.0482,-5.0511,-5.061,-5.0719,-5.0627,-5.0656,-5.0595,-5.0689,-5.0939,-5.0577,-5.0576,-5.0646,-5.1196,-5.1272,-5.1321,-5.0878,-5.0885,-5.0891,-5.1195,0,-5.0434,-5.0639,-5.0566,-5.0775,-5.0861,-5.073,-5.0834,-5.0849,-5.0823,-5.0892,-5.0862,-5.0943,-5.0814,-5.083,-5.0917,-5.0891,-5.1048,-5.0867,-5.0969,-5.0974,-5.0972,-5.1372,-5.1454,-5.1741,-5.1233,-5.1239,-5.1244,0,-5.0818,-5.0862,-5.108,-5.107,-5.1103,-5.1199,-5.1246,-5.1314,-5.1327,-5.1301,-5.1333,-5.1252,-5.1368,-5.1213,-5.1372,-5.1251,-5.1287,-5.128,-5.129,-5.1298,-5.1127,-5.1394,-5.1831,-5.1875,-5.1304,-5.1299,-5.1294,0,-5.1126,-5.1239,-5.1384,-5.1401,-5.1393,-5.1463,-5.1462,-5.1467,-5.1507,-5.1548,-5.1573,-5.1628,-5.1659,-5.1703,-5.1638,-5.1531,-5.1807,-5.1646,-5.179,-5.1792,-5.1856,-5.1854,-5.2308,-5.1877,-5.1877,-5.1876,-5.1875,0,-5.1476,-5.1615,-5.1523,-5.1613,-5.1764,-5.1677,-5.1829,-5.1814,-5.1819,-5.1903,-5.1791,-5.1873,-5.1781,-5.1854,-5.1804,-5.1944,-5.1958,-5.1941,-5.1926,-5.1952,-5.1955,-5.1977,-5.1956,-5.1887,-5.1885,-5.1882,-5.1881,0,-5.1847,-5.1791,-5.1941,-5.1919,-5.1917,-5.203,-5.2011,-5.2093,-5.2057,-5.2165,-5.2185,-5.2131,-5.221,-5.2149,-5.2228,-5.2193,-5.2379,-5.2335,-5.2375,-5.2363,-5.2511,-5.2499,-5.2997,-5.3058,-5.2587,-5.2592,-5.2596,0,-5.2075,-5.2179,-5.2168,-5.2216,-5.2223,-5.2301,-5.2341,-5.2258,-5.2304,-5.2326,-5.2406,-5.2475,-5.2526,-5.2659,-5.2627,-5.2685,-5.2643,-5.2814,-5.2652,-5.2674,-5.2648,-5.2643,-5.2653,-5.2848,-5.2853,-5.2858,-5.2861,0,-5.2486,-5.2452,-5.2514,-5.2566,-5.2616,-5.2653,-5.2681,-5.2727,-5.2642,-5.27,-5.2779,-5.2819,-5.2898,-5.2968,-5.3015,-5.3014,-5.2925,-5.2912,-5.2949,-5.2977,-5.2997,-5.2989,-5.2466,-5.2902,-5.2898,-5.2895,-5.2893,-5.2891,-5.2793,-5.2879,-5.2885,-5.2957,-5.2968,-5.2997,-5.3072,-5.3046,-5.311,-5.3168,-5.3115,-5.3211,-5.3219,-5.3273,-5.3282,-5.3356,-5.3285,-5.3338,-5.3352,-5.3367,-5.3389,-5.2983,-5.3364,-5.3362,-5.3361,-5.336,-5.3359,0,-5.3199,-5.3196,-5.3262,-5.3305,-5.3361,-5.327,-5.3295,-5.3349,-5.3435,-5.345,-5.3502,-5.3593,-5.366,-5.3632,-5.3691,-5.3755,-5.3716,-5.3773,-5.3769,-5.377,-5.3447,-5.3411,-5.3804,-5.3804,-5.3804,-5.3804,-5.3804,-5.3804,-5.3418,-5.3558,-5.3525,-5.367,-5.3664,-5.3757,-5.3779,-5.3805,-5.3816,-5.3923,-5.3978,-5.3958,-5.3956,-5.4013,-5.4071,-5.406,-5.4088,-5.4161,-5.4137,-5.3837,-5.3793,-5.3751,-5.3716,-5.4168,-5.4168,-5.4453,-5.4456,-5.4458]},{"header":{"parameterUnit":"m.s-1","parameterCategory":1,"la1":30.2991,"la2":30.254,"lo1":-89.0895,"lo2":-89.0444,"dy":0.0017,"dx":0.0017,"nx":28,"ny":28,"refTime":"2024-10-17T09:00:00:Z","depth":0,"parameterNumber":3,"parameterNumberName":"V-component_of_WINDS"},"data":[0,0,0,0,0,0,0,0,0,0,0,0,0,0,0,0,0,0,0,0,0,0,0,0,0,0,0,0,0,0,0,0,0,0,0,0,0,0,0,0,0,0,0,0,0,0,0,0,0,0,0,0,0,0,0,0,0,0,-5.3656,-5.3657,0,-5.3729,-5.373,-5.3731,-5.3655,-5.3652,-5.3649,-5.3646,-5.3716,-5.3721,-5.3725,0,0,0,0,0,0,0,0,0,0,0,0,0,-5.3442,-5.3447,-5.3656,-5.3657,-5.3658,-5.3729,-5.373,-5.3731,-5.3655,-5.3652,-5.3648,-5.3645,-5.3715,-5.372,-5.3726,0,0,0,0,0,0,0,0,0,0,0,0,0,-5.3527,-5.3448,-5.3655,-5.3628,-5.3627,-5.3729,-5.373,-5.3731,-5.3656,-5.3652,-5.3647,-5.3643,-5.3713,-5.372,-5.3727,-5.3858,0,0,-5.3748,-5.3751,0,0,0,0,0,0,0,0,-5.3523,-5.3535,-5.3632,-5.3631,-5.3629,-5.3679,-5.3681,-5.3774,-5.3657,-5.3645,-5.3646,-5.3641,-5.3707,-5.3714,-5.3737,-5.3861,-5.3864,-5.3748,-5.3753,-5.3756,-5.3757,0,0,0,0,0,0,0,-5.3517,-5.3532,-5.3685,-5.3633,-5.3631,-5.361,-5.3618,-5.3698,-5.37,-5.3646,-5.364,-5.365,-5.3705,-5.3731,-5.3739,-5.3865,-5.3748,-5.3754,-5.3759,-5.3761,-5.4096,-5.41,0,0,0,0,0,0,-5.3515,-5.3527,-5.3682,-5.3687,-5.3564,-5.3618,-5.3626,-5.3667,-5.3699,-5.3699,-5.3654,-5.3646,-5.3721,-5.3731,-5.3741,-5.3894,-5.3755,-5.3762,-5.3766,-5.4091,-5.4097,-5.4102,0,0,0,0,0,0,-5.3511,-5.3529,-5.3679,-5.3606,-5.3623,-5.3626,-5.3673,-5.3671,-5.3696,-5.3705,-5.3704,-5.368,-5.3718,-5.3731,-5.3829,-5.3895,-5.3765,-5.3771,-5.4085,-5.4093,-5.4099,-5.4202,0,0,0,0,0,0,-5.3505,-5.3528,-5.358,-5.3608,-5.3627,-5.3768,-5.3677,-5.3675,-5.3709,-5.37,-5.3729,-5.373,-5.3716,-5.3819,-5.3836,-5.3902,-5.3777,-5.4079,-5.4089,-5.4097,-5.4193,-5.4212,-5.4228,0,0,0,0,0,-5.3497,-5.3606,-5.3583,-5.3602,-5.3692,-5.3772,-5.3784,-5.3766,-5.3715,-5.3765,-5.377,-5.3729,-5.3886,-5.3829,-5.3848,-5.3917,-5.4075,-5.4086,-5.4096,-5.4185,-5.4208,-5.4228,0,0,0,0,0,0,-5.3584,-5.3609,-5.3584,-5.3705,-5.3737,-5.376,-5.3823,-5.3792,-5.3839,-5.3828,-5.3803,-5.381,-5.3913,-5.3925,-5.3862,-5.4044,-5.3971,-5.3986,-5.4033,-5.4055,-5.4072,-5.4066,-5.3782,0,0,0,0,0,-5.3618,-5.3683,-5.37,-5.3805,-5.3822,-5.382,-5.3854,-5.3838,-5.387,-5.3883,-5.3895,-5.3926,-5.3982,-5.4019,-5.4071,-5.4195,-5.4198,-5.4251,-5.4269,-5.4284,-5.4296,-5.4359,-5.4382,-5.4137,-5.4137,-5.4136,0,0,-5.3687,-5.3708,-5.3751,-5.3823,-5.3846,-5.3911,-5.3832,-5.3905,-5.3953,-5.3894,-5.3986,-5.3997,-5.4029,-5.414,-5.4189,-5.4153,-5.4365,-5.4297,-5.4309,-5.4313,-5.4372,-5.4396,-5.4416,-5.4144,-5.4143,-5.4142,0,0,-5.3846,-5.3871,-5.3959,-5.3984,-5.4021,-5.4018,-5.4039,-5.4066,-5.4071,-5.4164,-5.4121,-5.4176,-5.4273,-5.4297,-5.4322,-5.4489,-5.4452,-5.4507,-5.4599,-5.466,-5.468,-5.4697,-5.4753,-5.4774,-5.4519,-5.452,-5.452,0,-5.3927,-5.4026,-5.4008,-5.4084,-5.4115,-5.4066,-5.4154,-5.4179,-5.423,-5.4251,-5.4211,-5.433,-5.4349,-5.4463,-5.4504,-5.4527,-5.4548,-5.4502,-5.4679,-5.4696,-5.4711,-5.4765,-5.4787,-5.4526,-5.4525,-5.4525,-5.4524,0,-5.4122,-5.4191,-5.4258,-5.431,-5.4349,-5.4431,-5.4422,-5.4463,-5.4444,-5.4445,-5.4538,-5.4559,-5.4613,-5.4639,-5.4621,-5.475,-5.4726,-5.4683,-5.4609,-5.4741,-5.4791,-5.4812,-5.4535,-5.4533,-5.4531,-5.4529,0,0,-5.4338,-5.4378,-5.4403,-5.4425,-5.4461,-5.4513,-5.4591,-5.4645,-5.4679,-5.4716,-5.4779,-5.4862,-5.4821,-5.485,-5.4833,-5.4888,-5.5015,-5.4837,-5.4837,-5.4867,-5.5156,-5.5187,-5.5211,-5.4991,-5.4995,-5.4998,-5.5152,0,-5.4496,-5.4634,-5.4619,-5.4749,-5.481,-5.4764,-5.4831,-5.4859,-5.4862,-5.4913,-5.4915,-5.4973,-5.4917,-5.4933,-5.4985,-5.4989,-5.5072,-5.4978,-5.5047,-5.5049,-5.5038,-5.5238,-5.5271,-5.5415,-5.5172,-5.5175,-5.5177,0,-5.47,-5.4744,-5.4881,-5.4905,-5.493,-5.4992,-5.5039,-5.5089,-5.5119,-5.5117,-5.5148,-5.5121,-5.5197,-5.5123,-5.5225,-5.5161,-5.5188,-5.5194,-5.5199,-5.5203,-5.512,-5.5245,-5.5461,-5.5482,-5.5209,-5.5206,-5.5204,0,-5.484,-5.4934,-5.5027,-5.5048,-5.508,-5.5123,-5.5138,-5.5164,-5.5196,-5.5237,-5.5257,-5.5306,-5.5332,-5.5369,-5.5355,-5.5303,-5.5459,-5.5384,-5.5457,-5.5457,-5.549,-5.5488,-5.5712,-5.5512,-5.5512,-5.5511,-5.5511,0,-5.5017,-5.5102,-5.5091,-5.5148,-5.524,-5.5221,-5.5312,-5.5321,-5.5344,-5.54,-5.5362,-5.5415,-5.5394,-5.5445,-5.5435,-5.5519,-5.5532,-5.553,-5.5526,-5.5532,-5.5532,-5.5548,-5.5537,-5.5517,-5.5516,-5.5514,-5.5513,0,-5.519,-5.5186,-5.5284,-5.5306,-5.5313,-5.538,-5.5397,-5.545,-5.5449,-5.552,-5.5536,-5.5534,-5.5592,-5.5582,-5.5646,-5.5638,-5.5743,-5.5728,-5.5734,-5.5729,-5.5801,-5.5794,-5.6041,-5.6072,-5.5854,-5.5857,-5.5858,0,-5.5302,-5.5366,-5.5395,-5.543,-5.5449,-5.5506,-5.554,-5.5522,-5.5558,-5.5596,-5.5643,-5.5697,-5.574,-5.5834,-5.5837,-5.5885,-5.5869,-5.5952,-5.5876,-5.5879,-5.5867,-5.5863,-5.5868,-5.5967,-5.5969,-5.5971,-5.5973,0,-5.5501,-5.5496,-5.5546,-5.5596,-5.5637,-5.5674,-5.5708,-5.5739,-5.5724,-5.5766,-5.5825,-5.5858,-5.5923,-5.5977,-5.6021,-5.6033,-5.6,-5.5997,-5.6016,-5.6022,-5.6022,-5.6021,-5.5773,-5.5991,-5.599,-5.5988,-5.5987,-5.5986,-5.5645,-5.5699,-5.5727,-5.5784,-5.5807,-5.5839,-5.5889,-5.5895,-5.5944,-5.5997,-5.5983,-5.6049,-5.6074,-5.6131,-5.6148,-5.6198,-5.6167,-5.6195,-5.6202,-5.6208,-5.6216,-5.6016,-5.6207,-5.6206,-5.6205,-5.6205,-5.6205,0,-5.584,-5.5855,-5.5908,-5.5957,-5.6,-5.5967,-5.6002,-5.604,-5.61,-5.6127,-5.617,-5.6236,-5.6288,-5.6295,-5.6343,-5.6381,-5.6367,-5.6394,-5.639,-5.6393,-5.6242,-5.622,-5.6405,-5.6405,-5.6405,-5.6405,-5.6405,-5.6405,-5.5946,-5.6034,-5.6032,-5.6131,-5.6145,-5.6211,-5.6233,-5.6262,-5.6283,-5.636,-5.6403,-5.6408,-5.6426,-5.6475,-5.652,-5.652,-5.6538,-5.6571,-5.6566,-5.6424,-5.6404,-5.6385,-5.6364,-5.6576,-5.6576,-5.6712,-5.6713,-5.6714]}]]